Tracking 18840 objects as of 18-November-2017
HD Live streaming from Space Station
objects crossing your sky now

SKYNET 1

Track SKYNET 1 now!
SKYNET 1 is classified as:


NORAD ID: 4250
Int'l Code: 1969-101A
Perigee: 35,693.0 km
Apogee: 35,892.5 km
Inclination: 7.1 °
Period: 1,436.0 minutes
Semi major axis: 42163 km
RCS: 1.2928 m2 (large)
Launch date: November 22, 1969
Source: United Kingdom (UK)
Launch site: AIR FORCE EASTERN TEST RANGE (AFETR)
aabbcc
Your satellite tracking list
Your tracking list is empty




NASA's NSSDC Master Catalog

Two Line Element Set (TLE):
1 04250U 69101A   17322.51868872 -.00000091  00000-0  00000+0 0  9998
2 04250   7.0941 304.4063 0023656 244.9669 308.6939  1.00275408103094
Source of the keplerian elements: AFSPC